Regional Weather Roundup
Issued by NWS Newport/Morehead, NC

Current Version | Previous Version | Text Only | Print | Product List | Glossary On
Versions: 1 2 3 4 5 6 7 8 9 10 11 12 13 14 15 16 17 18 19 20 21 22 23 24 25 26 27 28 29 30 31 32 33 34 35 36 37 38 39 40 41 42 43 44 45 46 47 48 49 50
000
ASUS42 KMHX 261613
RWRMHX
WEATHER ROUNDUP FOR EASTERN NORTH CAROLINA
NATIONAL WEATHER SERVICE NEWPORT/MOREHEAD CITY NC
1200 PM EDT TUE JUL 26 2016

NOTE: "FAIR" INDICATES FEW OR NO CLOUDS BELOW 12,000 FEET
WITH NO SIGNIFICANT WEATHER AND/OR OBSTRUCTIONS TO VISIBILITY

NCZ015>017-031-032-045>047-102-103-261700-
NORTH COAST

CITY           SKY/WX    TMP DP  RH WIND       PRES   REMARKS
EDENTON        SUNNY     91  75  59 SW9       29.98F HX 101
ELIZABETH CITY SUNNY     90  76  63 W10       29.97S HX 101
KITTY HAWK     MOSUNNY   92  74  56 SW9       29.96S HX 102
MANTEO           N/A     89  77  68 W8        29.98S HX 101

$$

NCZ045>047-081-094-103-104-261700-
CENTRAL COAST

CITY           SKY/WX    TMP DP  RH WIND       PRES   REMARKS
FRISCO         SUNNY     84  77  79 SW15G21   30.00F

$$

NCZ095-097-098-100-101-261700-
SOUTHERN COAST

CITY           SKY/WX    TMP DP  RH WIND       PRES   REMARKS
BEAUFORT       SUNNY     86  75  69 SW17      30.03F
CEDAR ISLAND   NOT AVBL
JACKSONVILLE   PTSUNNY   90  74  59 W6        30.02F
PINEY ISLAND   NOT AVBL
WILMINGTON     MOSUNNY   87  74  64 SW8       30.04F


$$

NCZ011>013-027>030-043-044-078>080-089-090>093-098-261700-
COASTAL PLAIN

CITY           SKY/WX    TMP DP  RH WIND       PRES   REMARKS
AHOSKIE        SUNNY     87  77  72 CALM      29.98S HX 100
CLINTON        MOSUNNY   88  76  68 SW6       30.03S
ELIZABETHTOWN  MOSUNNY   89  74  61 S8        30.04S
GOLDSBORO      SUNNY     91  77  63 VRB3      30.00F HX 105
GREENVILLE     SUNNY     90  77  66 SW9       30.01F HX 102
HAVELOCK       SUNNY     90  73  57 W13       30.03F
KENANSVILLE    NOT AVBL
KINSTON        SUNNY     91  73  55 SW8       30.01F HX 100
NEW BERN       SUNNY     90  75  61 W8        30.02F HX 100
RICHLANDS      SUNNY     92  75  57 SW9       30.03F HX 103
ROCKY MOUNT    SUNNY     90  77  65 SW6       30.00S HX 103
WASHINGTON     SUNNY     89  77  66 SW8       29.99F HX 102
WHITEVILLE     SUNNY     89  74  62 SW8       30.04S

$$

AMZ130-135-150-152-154-156-158-170-250-252-270-ANZ085-086-088-633-658-670-261700-
MARINE OBSERVATIONS

STATION/POSITION TIME  TEMP    WIND        PRES    WAVE   SWELL
                       AIR SEA DIR/SP/G            HT/PER HT/PER
                 (UTC) (F)     (DEG/KT/KT) (MB)    (FT/S) (FT/S)
CHESAPEAKE LIGHT NOT AVBL
64 E VA BEACH    1550   81 81  250/ 10/ 12 1014.5    4/ 6   3/ 6
DUCK             1500   84 60  240/ 12/ 15 1014.1
2 E DUCK         1511      65                N/A     1/ 8
OREGON INLET     1500   85 84  230/  9/ 12 1015.1
13E OREGON INLT  1600      82                N/A     3/ 6   2/ 6
HATTERAS CG      1500   85 82  230/ 11/ 14 1016.1
DIAMOND BUOY     1550   83 84  240/ 19/ 23 1016.1    5/ 6
CAPE LOOKOUT     1600   85     240/ 12/ 16 1016.9
BEAUFORT LAB     1500   85 82  240/  6/ 12 1016.5
30 SE NEW RVR IN 1508   84 85  250/ 16/ 19 1017.7
30 SE NEW RVR IN 1525      85                N/A     4/ 5
27 SE WRIGHTSVLE 1508   84 84  250/ 16/ 19 1018.1
5 SE WRIGHTSVLE  1508   83 81  230/  8/ 10 1018.5
225 S CAPE HAT   1550   83 84  230/ 12/ 14 1019.2    3/ 4   2/ 8
41 SE CHARLESTON 1550   85 86  250/ 10/ 12 1018.1    2/ 4   2/ 8

$$




USA.gov is the U.S. government's official web portal to all federal, state and local government web resources and services.